Regional Weather Roundup
Issued by NWS

Home | Current Version | Previous Version | Graphics & Text | Print | Product List | Glossary Off
Versions: 1 2 3 4 5 6 7 8 9 10 11 12 13 14 15 16 17 18 19 20 21 22 23 24 25 26 27 28 29 30 31 32 33 34 35 36 37 38 39 40 41 42 43 44 45 46 47 48 49 50

000
ASUS43 KMPX 302210
RWRMN
WEATHER ROUNDUP FOR MINNESOTA
NATIONAL WEATHER SERVICE TWIN CITIES/CHANHASSEN MN
400 PM CST FRI JAN 30 2015


NOTE: "FAIR" INDICATES FEW OR NO CLOUDS BELOW 12,000 FEET WITH NO
SIGNIFICANT WEATHER AND/OR OBSTRUCTIONS TO VISIBILITY. N/A MEANS
CURRENT SKY AND/OR WEATHER CONDITIONS ARE NOT AVAILABLE.

MNZ060>063-068>070-302300-
   Twin Cities Metro

CITY           SKY/WX    TMP DP  RH WIND       PRES   REMARKS
TWIN CITIES    MOSUNNY   27  13  55 S10       30.32F WCI  17
ST PAUL        SUNNY     27  13  55 S9        30.34F WCI  18
CRYSTAL        SUNNY     28  14  55 S10       30.29F WCI  19
BLAINE         MOSUNNY   28  14  54 S10       30.30F WCI  19
LAKEVILLE      SUNNY     27  18  69 S7        30.32F WCI  19
EDEN PRAIRIE   SUNNY     28  16  60 S10       30.30F WCI  19
SOUTH ST PAUL  SUNNY     28  16  59 S10       30.33F WCI  19
LAKE ELMO      FAIR      27  16  63 S10       30.33F WCI  17
$$
MNZ001>005-007-008-013>017-022>024-027-028-302300-
   Northwest Minnesota

CITY           SKY/WX    TMP DP  RH WIND       PRES   REMARKS
BEMIDJI        CLOUDY    19  13  75 S8        30.13F WCI   9
HALLOCK        SUNNY     25  19  80 S9        30.12S WCI  15
ROSEAU         CLOUDY    19  16  86 S7        30.13S WCI  10
WARROAD        CLOUDY    19  12  73 SW5       30.14R WCI  13
THIEF RVR FALL CLOUDY    25  19  80 S12       30.12F WCI  14
CROOKSTON      MOSUNNY   28  21  74 S15       30.13F WCI  17
FOSSTON        CLOUDY    21  18  86 S14       30.14F WCI   8
DETROIT LAKES  MOSUNNY   27  21  80 S6        30.16R WCI  20
MOORHEAD       SUNNY     30  27  86 S14       30.15F WCI  20
PARK RAPIDS    CLOUDY    24  14  65 S10       30.14S WCI  14
MAHNOMEN       CLOUDY    24  18  79 S13       30.14F WCI  12
$$
MNZ006-009>011-018-025>026-302300-
   North Central Minnesota

CITY           SKY/WX    TMP DP  RH WIND       PRES   REMARKS
BAUDETTE       CLOUDY    16   8  71 S9        30.12F WCI   4
FLAG ISLAND    CLOUDY    10   7  85 S14       30.14S WCI  -5
INTL FALLS     FLURRIES  11   5  77 SE9       30.16F WCI  -2
WASKISH        CLOUDY    18   9  68 S6        30.15R WCI   9
BIG FORK       PTCLDY    18   7  62 S8        30.15F WCI   7
LONGVILLE      CLOUDY    19  10  68 SE7       30.17F WCI  10
GRAND RAPIDS   CLOUDY    16   7  67 S14       30.17F WCI   1
CRANE LAKE     LGT SNOW  10   7  85 S5        30.23F WCI   2
ORR            LGT SNOW  10   5  79 SE6       30.16F VSB 1   WCI   1
COOK           LGT SNOW  12   5  73 SE7       30.19F WCI   2
WALKER         CLOUDY    20  11  68 SE6       30.14F WCI  12
$$
MNZ012-019>021-037-302300-
   Northeast Minnesota

CITY           SKY/WX    TMP DP  RH WIND       PRES   REMARKS
DULUTH         CLOUDY    15   3  59 S10       30.23F WCI   2
ELY            LGT SNOW  12   7  79 S5        30.21F WCI   4
HIBBING        CLOUDY    17   2  51 S8        30.21F WCI   7
EVELETH        CLEAR     16   3  57 S6        30.23F WCI   7
DULUTH HARBOR  CLOUDY    19   5  53 S7        30.32F WCI  10
TWO HARBORS    CLOUDY    16   7  67 S7        30.25F WCI   6
SILVER BAY     CLOUDY    16   5  62 S6        30.26F WCI   7
GRAND MARAIS     N/A     17   5  59 W6        30.32F WCI   9
G MARAIS ARPRT CLOUDY     9  -2  61 S5        30.21F WCI   0
$$
MNZ029>031-032-039>041-046>048-054>057-064-302300-
   West Central Minnesota

CITY           SKY/WX    TMP DP  RH WIND       PRES   REMARKS
FERGUS FALLS   MOSUNNY   27  19  74 S16       30.18F WCI  14
WHEATON        SUNNY     34  27  75 S12       30.16F WCI  25
MORRIS         SUNNY     32  25  74 S16       30.16F WCI  21
ALEXANDRIA     PTSUNNY   24  17  74 S17G23    30.17F WCI  11
ELBOW LAKE     FAIR      27  22  81 S17       30.16F WCI  14
WADENA         MOSUNNY   25  16  68 S13       30.16S WCI  13
GLENWOOD       SUNNY     25  19  80 S17       30.19F WCI  11
APPLETON       SUNNY     36  27  69 S15G21    30.18F
BENSON         SUNNY     30  23  74 S13       30.19F WCI  20
ORTONVILLE     SUNNY     37  27  65 S12       30.16F
MADISON        SUNNY     39  30  70 S13       30.18S
WILLMAR        FAIR      28  21  74 S16       30.23F WCI  17
$$
MNZ033>034-036-042>043-049>051-058-059-302300-
   Central Minnesota

CITY           SKY/WX    TMP DP  RH WIND       PRES   REMARKS
ST CLOUD       CLOUDY    26  15  63 S13       30.24F WCI  15
SAUK CENTRE    FAIR      24  18  77 S20       30.20F WCI  10
PAYNESVILLE    SUNNY     23  18  79 SE14      30.22F WCI  11
AITKIN         CLOUDY    23  10  58 SE9       30.19F WCI  13
PINE RIVER     CLOUDY    21  12  68 SE12      30.18F WCI   9
BRAINERD       CLOUDY    23  11  60 S15       30.20F WCI  10
STAPLES        PTSUNNY   25  12  58 S14G20    30.17F WCI  13
LONG PRAIRIE   PTSUNNY   27  18  69 SE14      30.19F WCI  15
LITTLE FALLS   CLOUDY    27  14  59 SE12      30.22F WCI  16
LITCHFIELD     SUNNY     28  21  74 S9        30.25F WCI  20
BUFFALO        SUNNY     26  17  66 S9        30.29F WCI  17
MAPLE LAKE     SUNNY     27  19  72 S12       30.27F WCI  17
$$
MNZ037-044-045-052-053-302300-
   East Central Minnesota

CITY           SKY/WX    TMP DP  RH WIND       PRES   REMARKS
PRINCETON      CLOUDY    27  14  59 SE12      30.26F WCI  16
MORA           MOSUNNY   23  10  58 S9        30.29F WCI  13
CAMBRIDGE      MOSUNNY   25  12  58 S9        30.27F WCI  15
RUSH CITY      SUNNY     23  10  58 S8        30.29F WCI  14
MOOSE LAKE     CLOUDY    19   7  58 S5        30.25F WCI  13
HINCKLEY       FAIR      23  10  58 S10       30.28F WCI  12
CLOQUET        MOCLDY    16   3  57 S8        30.25F WCI   5
MCGREGOR       CLOUDY    21  10  63 S8        30.23F WCI  12
$$
MNZ071>073-080-081-089-090-097-098-302300-
   Southwest Minnesota

CITY           SKY/WX    TMP DP  RH WIND       PRES   REMARKS
MONTEVIDEO     SUNNY     34  27  75 S10G20      N/A  WCI  26
GRANITE FALLS  SUNNY     32  26  78 SE16      30.21F WCI  22
CANBY          SUNNY     37  28  69 S10       30.18F
MARSHALL       SUNNY     36  25  64 S22       30.21F
REDWOOD FALLS  SUNNY     33  23  66 S18G24    30.24F WCI  22
OLIVIA         SUNNY     30  23  74 S15       30.22F WCI  19
PIPESTONE      SUNNY     34  28  80 S18G24    30.19F WCI  23
WINDOM         SUNNY     32  25  74 S13G21    30.24F WCI  22
WORTHINGTON    SUNNY     32  25  74 S16       30.25F WCI  21
JACKSON        SUNNY     32  23  69 S16       30.27F WCI  21
TRACY          SUNNY     35  28  74 S16G22    30.21F WCI  25
SLAYTON        SUNNY     32  26  78 S16G23    30.22F WCI  21
$$
MNZ065>067-074>077-082>085-091>093-302300-
   South Central Minnesota

CITY           SKY/WX    TMP DP  RH WIND       PRES   REMARKS
MANKATO        SUNNY     30  18  59 S15       30.30F WCI  19
NEW ULM        SUNNY     30  19  64 S14G20    30.27F WCI  20
ST JAMES       SUNNY     32  23  69 S17       30.29F WCI  21
FAIRMONT       PTSUNNY   30  21  69 S16       30.28F WCI  19
GLENCOE        SUNNY     30  22  71 S7G17     30.28F WCI  23
FARIBAULT      SUNNY     28  18  64 S12       30.32F WCI  18
OWATONNA       SUNNY     28  18  64 S13       30.32F WCI  18
WASECA         SUNNY     30  23  74 S14       30.33F WCI  20
ALBERT LEA     SUNNY     28  18  64 S10G18    30.33F WCI  19
$$
MNZ078>079-086>088-094>096-302300-
   Southeast Minnesota

CITY           SKY/WX    TMP DP  RH WIND       PRES   REMARKS
ROCHESTER      SUNNY     22  13  68 S13       30.34F WCI  10
RED WING       SUNNY     27  12  54 SW6       30.36S WCI  20
STANTON        SUNNY     29  18  63 SW13      30.32F WCI  19
DODGE CENTER   MOSUNNY   27  18  69 S12       30.32F WCI  16
WINONA         PTSUNNY   28  10  47 SW6       30.39F WCI  22
AUSTIN         SUNNY     27  16  63 S9        30.34F WCI  17
PRESTON        SUNNY     24  11  59 S9        30.35F WCI  14
$$
ABBREVIATIONS USED IN REMARKS
   TC - TEMPERATURES IN CELSIUS
  WCI - WIND CHILL INDEX
   HX - HEAT INDEX
  VSB - VISIBILITY
$$


USA.gov is the U.S. government's official web portal to all federal, state and local government web resources and services.